Location: Old Broadwell Mill Observatory
(33.8015°N, 85.8137°W)
Time: 16:17:31
(UTC-05:00)

Amateur Radio Satellites - All Passes

Search period start: 23 October 2014 15:47
Search period end: 24 October 2014 15:47
Location: Old Broadwell Mill Observatory, 33.8015°N, 85.8137°W

Satellite Date Start Highest point End Downlink Frequencies (MHz)
Time Altitude Azimuth
UOSAT-12 23 Oct 15:52:13 15:55:51 22° 308° (NW) 15:59:33 437.025 FM, 437.400 FM
Saudisat 1A 23 Oct 15:56:36 15:59:04 15° 49° (NE) 16:01:32 436.775 MHz
JAS-2 23 Oct 16:13:08 16:16:45 17° 61° (ENE) 16:20:35 435.800 - 435.900 CW/SSB, 435.910 FM
Uosat F 23 Oct 16:49:43 16:54:35 52° 259° (W) 16:59:30 435.120 FM
OPAL 23 Oct 16:53:07 16:55:57 15° 96° (E) 16:58:46 ?
AO-7 23 Oct 17:16:13 17:23:36 36° 261° (W) 17:31:02 29.400 - 29.500 MHz
Hamsat 23 Oct 17:21:05 17:24:58 36° 73° (ENE) 17:28:49 145.90 MHz
Saudisat 1A 23 Oct 17:34:38 17:38:56 54° 245° (WSW) 17:43:13 436.775 MHz
JAS-2 23 Oct 17:55:21 18:00:58 64° 260° (W) 18:07:22 435.800 - 435.900 CW/SSB, 435.910 FM
OPAL 23 Oct 18:30:17 18:35:02 48° 289° (WNW) 18:39:45 ?
STRAND 1 23 Oct 18:34:33 18:38:12 19° 95° (E) 18:41:49 ?
Hamsat 23 Oct 18:58:43 19:00:59 14° 266° (W) 19:03:16 145.90 MHz
ISS 23 Oct 19:29:23 19:32:06 23° 35° (NE) 19:34:49 145.800 FM
HO-68 23 Oct 19:31:47 19:36:43 21° 61° (ENE) 19:41:40 435.675 MHz FM
SO-67 23 Oct 19:31:52 19:35:05 38° 262° (W) 19:38:19 435.3500 MHz FM
AO-40 23 Oct 19:56:22 22:15:04 22° 109° (ESE) 23:25:16 Beacon 2401.320
STRAND 1 23 Oct 20:12:41 20:17:29 40° 289° (WNW) 20:22:15 ?
UKube-1 23 Oct 20:27:19 20:28:46 12° 65° (ENE) 20:30:14 145.840 MHz, 145.915 MHz
FUNcube-1 23 Oct 21:04:32 21:06:04 12° 66° (ENE) 21:07:35 145.950 - 145.970 MHz USB
ISS 23 Oct 21:05:51 21:08:48 29° 230° (SW) 21:11:43 145.800 FM
Oscar 11 23 Oct 21:07:24 21:11:10 29° 72° (ENE) 21:14:55 145.825 FM, Beacon 2401.500 USB
RS-15 23 Oct 21:11:41 21:21:29 38° 107° (ESE) 21:31:06 29.354 - 29.394 USB, Beacon 29.352 USB
KITSAT 1 23 Oct 21:13:50 21:21:31 45° 56° (NE) 21:29:07 435.175 FM
SO-50 23 Oct 21:15:05 21:18:21 18° 50° (NE) 21:21:37 436.795 FM
HO-68 23 Oct 21:16:38 21:23:43 68° 257° (WSW) 21:30:53 435.675 MHz FM
ZACube-1 23 Oct 21:52:34 21:56:54 41° 74° (ENE) 22:01:11 437.345 MHz
UKube-1 23 Oct 22:00:13 22:04:27 53° 259° (W) 22:08:43 145.840 MHz, 145.915 MHz
FUNcube-1 23 Oct 22:37:22 22:41:54 59° 260° (W) 22:46:25 145.950 - 145.970 MHz USB
Oscar 11 23 Oct 22:44:15 22:47:19 19° 265° (W) 22:50:23 145.825 FM, Beacon 2401.500 USB
UOSAT-12 23 Oct 22:46:11 22:48:21 13° 46° (NE) 22:50:30 437.025 FM, 437.400 FM
MaSat-1 23 Oct 22:52:48 22:55:50 19° 106° (ESE) 22:58:42 437.345 MHz
SO-50 23 Oct 22:54:28 22:59:12 52° 245° (WSW) 23:03:56 436.795 FM
KITSAT 1 23 Oct 23:09:33 23:16:39 36° 253° (WSW) 23:23:45 435.175 FM
RS-15 23 Oct 23:22:42 23:33:21 53° 305° (NW) 23:43:59 29.354 - 29.394 USB, Beacon 29.352 USB
ZACube-1 23 Oct 23:30:44 23:33:23 15° 266° (W) 23:36:03 437.345 MHz
UOSAT-12 24 Oct 00:24:19 00:29:00 72° 243° (WSW) 00:33:35 437.025 FM, 437.400 FM
MaSat-1 24 Oct 00:27:39 00:31:20 28° 296° (WNW) 00:34:45 437.345 MHz
JAS-1B 24 Oct 00:42:01 00:42:14 10° 93° (E) 00:42:26 435.800 - 435.900 CW/SSB
Oscar 16 24 Oct 01:35:37 01:40:08 31° 97° (E) 01:44:37 437.025 USB, Beacon 2401.1428
AO-Echo 24 Oct 01:39:56 01:43:25 18° 93° (E) 01:46:53 ?
RS-15 24 Oct 01:43:21 01:49:04 15° 334° (NNW) 01:54:50 29.354 - 29.394 USB, Beacon 29.352 USB
Uribyol 2 24 Oct 01:54:09 01:57:45 19° 94° (E) 02:01:18 436.500 FM
ITAMSAT 1 24 Oct 01:59:46 02:03:33 20° 95° (E) 02:07:18 435.822 SSB
Gurwin Techsat 1B 24 Oct 02:14:36 02:17:18 14° 92° (E) 02:19:58 435.225 FM
JAS-1B 24 Oct 02:26:16 02:33:08 79° 104° (ESE) 02:41:24 435.800 - 435.900 CW/SSB
TMSAT-1 24 Oct 02:26:44 02:29:09 13° 92° (E) 02:31:34 436.925 FM
Oscar 19 24 Oct 02:28:47 02:33:54 75° 285° (WNW) 02:38:59 437.125 CW, 437.150 USB
Oscar 10/S400 24 Oct 02:36:06 03:17:24 13° 254° (WSW) 04:19:07 145.825 - 145.975 CW/USB, Beacon 145.810 USB
AO-27 24 Oct 02:44:01 02:49:11 59° 101° (E) 02:54:19 436.795 MHz FM
Sapphire 24 Oct 03:10:51 03:15:34 32° 108° (ESE) 03:20:18 437.095 MHz 1200 baud AX-25 AFSK
Oscar 16 24 Oct 03:15:10 03:19:18 25° 291° (WNW) 03:23:26 437.025 USB, Beacon 2401.1428
AO-Echo 24 Oct 03:17:15 03:22:21 48° 287° (WNW) 03:27:25 ?
AO-7 24 Oct 03:31:01 03:35:49 16° 93° (E) 03:40:36 29.400 - 29.500 MHz
Uribyol 2 24 Oct 03:32:27 03:37:21 42° 288° (WNW) 03:42:12 436.500 FM
PCSat 24 Oct 03:32:50 03:38:06 57° 112° (ESE) 03:43:25 145.825 MHz
ITAMSAT 1 24 Oct 03:38:16 03:43:07 40° 289° (WNW) 03:47:56 435.822 SSB
Gurwin Techsat 1B 24 Oct 03:52:21 03:57:34 58° 286° (WNW) 04:02:45 435.225 FM
OPAL 24 Oct 04:04:03 04:07:43 20° 65° (ENE) 04:11:21 ?
TMSAT-1 24 Oct 04:04:11 04:09:25 61° 286° (WNW) 04:14:36 436.925 FM
RS-15 24 Oct 04:06:02 04:08:49 11° 14° (NNE) 04:11:36 29.354 - 29.394 USB, Beacon 29.352 USB
JAS-1B 24 Oct 04:19:15 04:23:15 17° 296° (WNW) 04:27:38 435.800 - 435.900 CW/SSB
AO-27 24 Oct 04:25:23 04:28:08 15° 296° (WNW) 04:30:53 436.795 MHz FM
Sapphire 24 Oct 04:54:14 04:58:55 29° 304° (WNW) 05:03:37 437.095 MHz 1200 baud AX-25 AFSK
Uosat F 24 Oct 05:01:13 05:06:15 66° 102° (ESE) 05:11:14 435.120 FM
JAS-2 24 Oct 05:08:36 05:15:02 27° 94° (E) 05:21:20 435.800 - 435.900 CW/SSB, 435.910 FM
PCSat 24 Oct 05:18:15 05:21:52 18° 308° (NW) 05:25:30 145.825 MHz
AO-7 24 Oct 05:20:58 05:29:19 84° 288° (WNW) 05:37:39 29.400 - 29.500 MHz
OPAL 24 Oct 05:41:23 05:46:15 42° 259° (WSW) 05:51:06 ?
STRAND 1 24 Oct 05:47:04 05:50:40 20° 67° (ENE) 05:54:17 ?
RS-15 24 Oct 06:16:24 06:26:16 34° 47° (NE) 06:36:25 29.354 - 29.394 USB, Beacon 29.352 USB
Uosat F 24 Oct 06:42:25 06:44:24 12° 296° (WNW) 06:46:23 435.120 FM
Hamsat 24 Oct 06:45:56 06:50:04 60° 284° (WNW) 06:54:14 145.90 MHz
JAS-2 24 Oct 06:52:38 07:00:12 56° 288° (WNW) 07:07:44 435.800 - 435.900 CW/SSB, 435.910 FM
SO-67 24 Oct 06:59:34 07:01:52 17° 95° (E) 07:04:09 435.3500 MHz FM
PANSAT 24 Oct 07:09:30 07:12:20 20° 163° (SSE) 07:15:11 not established
AO-7 24 Oct 07:16:19 07:20:52 16° 306° (NW) 07:25:25 29.400 - 29.500 MHz
STRAND 1 24 Oct 07:24:41 07:29:30 41° 261° (W) 07:34:21 ?
Saudisat 1A 24 Oct 07:36:57 07:41:20 82° 299° (WNW) 07:45:45 436.775 MHz
RS-15 24 Oct 08:28:14 08:39:20 67° 247° (WSW) 08:50:58 29.354 - 29.394 USB, Beacon 29.352 USB
SO-67 24 Oct 08:32:12 08:34:44 19° 288° (WNW) 08:37:16 435.3500 MHz FM
PANSAT 24 Oct 08:48:34 08:52:04 35° 175° (S) 08:55:35 not established
HO-68 24 Oct 08:49:17 08:55:24 29° 97° (E) 09:01:26 435.675 MHz FM
UKube-1 24 Oct 09:52:24 09:56:23 34° 98° (E) 10:00:19 145.840 MHz, 145.915 MHz
MaSat-1 24 Oct 10:17:42 10:19:38 20° 253° (WSW) 10:21:28 437.345 MHz
PANSAT 24 Oct 10:28:28 10:31:54 32° 188° (S) 10:35:20 not established
FUNcube-1 24 Oct 10:30:52 10:34:43 34° 98° (E) 10:38:30 145.950 - 145.970 MHz USB
Oscar 11 24 Oct 10:34:14 10:38:33 78° 283° (WNW) 10:42:50 145.825 FM, Beacon 2401.500 USB
HO-68 24 Oct 10:36:24 10:43:09 45° 292° (WNW) 10:49:53 435.675 MHz FM
RS-15 24 Oct 10:48:18 10:49:42 10° 263° (W) 10:51:07 29.354 - 29.394 USB, Beacon 29.352 USB
ZACube-1 24 Oct 11:22:01 11:26:08 51° 285° (WNW) 11:30:10 437.345 MHz
SO-50 24 Oct 11:29:17 11:30:00 10° 106° (ESE) 11:30:44 436.795 FM
UKube-1 24 Oct 11:29:24 11:32:16 17° 292° (WNW) 11:35:08 145.840 MHz, 145.915 MHz
KITSAT 1 24 Oct 11:37:19 11:45:03 52° 110° (ESE) 11:52:48 435.175 FM
Sapphire 24 Oct 12:04:05 12:06:32 13° 48° (NE) 12:08:58 437.095 MHz 1200 baud AX-25 AFSK
Oscar 19 24 Oct 12:07:00 12:08:10 11° 63° (ENE) 12:09:19 437.125 CW, 437.150 USB
ISS 24 Oct 12:08:10 12:11:25 55° 134° (SE) 12:14:41 145.800 FM
FUNcube-1 24 Oct 12:08:15 12:10:46 16° 292° (WNW) 12:13:16 145.950 - 145.970 MHz USB
PANSAT 24 Oct 12:09:16 12:11:34 15° 200° (SSW) 12:13:53 not established
Oscar 10/S400 24 Oct 12:19:12 12:41:39 39° 153° (SSE) 12:59:40 145.825 - 145.975 CW/USB, Beacon 145.810 USB
PCSat 24 Oct 12:25:26 12:29:32 21° 53° (NE) 12:33:37 145.825 MHz
Oscar 16 24 Oct 12:48:53 12:53:23 31° 70° (ENE) 12:57:53 437.025 USB, Beacon 2401.1428
AO-Echo 24 Oct 12:50:11 12:52:44 14° 65° (ENE) 12:55:19 ?
SO-50 24 Oct 13:05:31 13:09:55 61° 301° (WNW) 13:14:28 436.795 FM
Uribyol 2 24 Oct 13:08:29 13:12:12 20° 67° (ENE) 13:15:56 436.500 FM
JAS-1B 24 Oct 13:09:24 13:15:05 42° 71° (ENE) 13:20:24 435.800 - 435.900 CW/SSB
ITAMSAT 1 24 Oct 13:14:13 13:18:05 22° 67° (ENE) 13:21:58 435.822 SSB
Gurwin Techsat 1B 24 Oct 13:32:04 13:35:15 16° 65° (ENE) 13:38:26 435.225 FM
KITSAT 1 24 Oct 13:33:37 13:40:40 32° 308° (NW) 13:47:45 435.175 FM
Oscar 19 24 Oct 13:41:38 13:46:48 78° 257° (WSW) 13:51:57 437.125 CW, 437.150 USB
TMSAT-1 24 Oct 13:43:51 13:46:49 15° 65° (ENE) 13:49:47 436.925 FM
Sapphire 24 Oct 13:45:10 13:50:37 84° 246° (WSW) 13:56:01 437.095 MHz 1200 baud AX-25 AFSK
ISS 24 Oct 13:46:17 13:48:20 15° 329° (NNW) 13:50:24 145.800 FM
AO-27 24 Oct 13:58:14 14:03:20 61° 74° (ENE) 14:08:29 436.795 MHz FM
PCSat 24 Oct 14:07:59 14:13:09 46° 249° (WSW) 14:18:17 145.825 MHz
AO-Echo 24 Oct 14:26:14 14:30:57 54° 260° (W) 14:35:50 ?
AO-7 24 Oct 14:26:45 14:31:50 18° 56° (NE) 14:36:54 29.400 - 29.500 MHz
Oscar 16 24 Oct 14:28:27 14:32:40 25° 264° (W) 14:36:54 437.025 USB, Beacon 2401.1428
UOSAT-12 24 Oct 14:31:23 14:35:59 87° 118° (ESE) 14:40:42 437.025 FM, 437.400 FM
Uribyol 2 24 Oct 14:46:25 14:51:19 42° 261° (W) 14:56:16 436.500 FM
ITAMSAT 1 24 Oct 14:52:27 14:57:16 39° 261° (W) 15:02:08 435.822 SSB
JAS-1B 24 Oct 15:01:30 15:05:53 20° 264° (W) 15:10:03 435.800 - 435.900 CW/SSB
Gurwin Techsat 1B 24 Oct 15:09:33 15:14:43 54° 260° (W) 15:19:55 435.225 FM
TMSAT-1 24 Oct 15:21:00 15:26:12 57° 259° (W) 15:31:26 436.925 FM
AO-27 24 Oct 15:40:55 15:43:11 13° 268° (W) 15:45:28 436.795 MHz FM
